TimeCDT,TemperatureF,Dew PointF,Humidity,Sea Level PressureIn,VisibilityMPH,Wind Direction,Wind SpeedMPH,Gust SpeedMPH,PrecipitationIn,Events,Conditions,WindDirDegrees,DateUTC
12:55 AM,59.9,59.0,97,30.06,10.0,North,4.6,-,N/A,,Clear,360,2012-10-24 05:55:00
1:55 AM,59.2,58.6,98,30.05,10.0,North,5.8,-,N/A,,Clear,360,2012-10-24 06:55:00
2:55 AM,58.6,58.3,99,30.04,10.0,North,5.8,-,N/A,,Clear,10,2012-10-24 07:55:00
3:55 AM,59.4,58.8,98,30.04,10.0,North,5.8,-,N/A,,Clear,360,2012-10-24 08:55:00
4:55 AM,59.7,59.2,98,30.07,10.0,North,5.8,-,N/A,,Clear,360,2012-10-24 09:55:00
5:55 AM,60.3,60.1,99,30.09,10.0,NNE,4.6,-,N/A,,Clear,30,2012-10-24 10:55:00
6:55 AM,62.1,61.7,99,30.09,10.0,ENE,6.9,-,N/A,,Clear,60,2012-10-24 11:55:00
7:55 AM,64.6,63.3,96,30.10,10.0,ENE,6.9,-,N/A,,Clear,60,2012-10-24 12:55:00
8:55 AM,69.3,65.3,87,30.11,10.0,ENE,5.8,-,N/A,,Clear,60,2012-10-24 13:55:00
9:55 AM,74.7,66.7,76,30.11,10.0,East,9.2,-,N/A,,Clear,80,2012-10-24 14:55:00
10:55 AM,78.4,65.1,63,30.10,10.0,East,9.2,-,N/A,,Clear,100,2012-10-24 15:55:00
11:55 AM,80.6,64.6,58,30.08,10.0,East,8.1,-,N/A,,Clear,100,2012-10-24 16:55:00
12:15 PM,80.6,64.4,58,30.07,10.0,East,6.9,-,N/A,Rain,Light Rain,80,2012-10-24 17:15:00
12:28 PM,80.6,66.2,61,30.07,10.0,SSE,8.1,-,N/A,,Clear,150,2012-10-24 17:28:00
12:30 PM,80.6,66.2,61,30.06,10.0,SSE,10.4,-,N/A,,Light Drizzle,150,2012-10-24 17:30:00
12:52 PM,80.6,68.0,65,30.06,10.0,SSE,10.4,-,N/A,,Clear,160,2012-10-24 17:52:00
12:55 PM,80.2,67.5,65,30.05,10.0,SSE,10.4,-,0.00,,Clear,160,2012-10-24 17:55:00
1:55 PM,79.7,66.0,63,30.03,10.0,SE,10.4,-,N/A,,Partly Cloudy,140,2012-10-24 18:55:00
2:19 PM,80.6,66.2,61,30.03,10.0,SSE,9.2,-,N/A,,Light Drizzle,150,2012-10-24 19:19:00
2:29 PM,80.6,66.2,61,30.02,10.0,SSE,9.2,-,N/A,,Clear,160,2012-10-24 19:29:00
2:55 PM,80.2,66.7,63,30.01,10.0,SSE,10.4,-,0.00,,Clear,150,2012-10-24 19:55:00
3:07 PM,80.6,66.2,61,30.01,10.0,SSE,9.2,-,N/A,Rain,Light Rain,160,2012-10-24 20:07:00
3:10 PM,80.6,66.2,61,30.01,10.0,SSE,9.2,-,N/A,,Clear,150,2012-10-24 20:10:00
3:16 PM,80.6,66.2,61,30.01,10.0,SE,6.9,-,N/A,Rain,Light Rain,140,2012-10-24 20:16:00
3:17 PM,80.6,68.0,65,30.01,10.0,Variable,6.9,-,N/A,,Clear,0,2012-10-24 20:17:00
3:18 PM,80.6,68.0,65,30.01,10.0,SE,8.1,-,N/A,,Light Drizzle,140,2012-10-24 20:18:00
3:26 PM,78.8,68.0,69,30.01,10.0,Variable,5.8,-,N/A,,Clear,0,2012-10-24 20:26:00
3:50 PM,80.6,68.0,65,30.01,10.0,SE,5.8,-,N/A,,Light Drizzle,130,2012-10-24 20:50:00
3:55 PM,79.7,66.7,64,30.01,10.0,SE,4.6,-,0.00,,Light Drizzle,140,2012-10-24 20:55:00
3:59 PM,80.6,66.2,61,30.01,10.0,SE,5.8,-,N/A,,Clear,130,2012-10-24 20:59:00
4:10 PM,78.8,68.0,69,30.01,10.0,East,3.5,-,N/A,,Light Drizzle,100,2012-10-24 21:10:00
4:15 PM,78.8,68.0,69,30.01,10.0,Variable,4.6,-,N/A,,Clear,0,2012-10-24 21:15:00
4:42 PM,78.8,68.0,69,30.00,10.0,East,4.6,-,N/A,,Light Drizzle,100,2012-10-24 21:42:00
4:54 PM,78.8,68.0,69,30.00,10.0,Calm,Calm,-,N/A,,Clear,0,2012-10-24 21:54:00
4:55 PM,78.4,67.5,69,30.00,10.0,SE,3.5,-,0.00,,Clear,140,2012-10-24 21:55:00
5:42 PM,75.2,68.0,78,30.00,10.0,SE,4.6,-,N/A,,Light Drizzle,140,2012-10-24 22:42:00
5:51 PM,75.2,68.0,78,30.01,10.0,SE,3.5,-,N/A,,Clear,140,2012-10-24 22:51:00
5:53 PM,75.2,68.0,78,30.01,10.0,Calm,Calm,-,N/A,,Light Drizzle,0,2012-10-24 22:53:00
5:55 PM,75.4,67.5,76,30.01,10.0,Calm,Calm,-,0.00,,Light Drizzle,0,2012-10-24 22:55:00
6:02 PM,75.2,68.0,78,30.01,10.0,Calm,Calm,-,N/A,,Clear,0,2012-10-24 23:02:00
6:55 PM,72.7,67.1,83,30.02,10.0,Calm,Calm,-,0.00,,Clear,0,2012-10-24 23:55:00
7:55 PM,68.0,65.8,93,30.03,10.0,Calm,Calm,-,N/A,,Clear,0,2012-10-25 00:55:00
8:55 PM,66.0,64.6,95,30.03,10.0,Calm,Calm,-,N/A,,Clear,0,2012-10-25 01:55:00
9:55 PM,64.4,63.3,96,30.03,10.0,Calm,Calm,-,N/A,,Clear,0,2012-10-25 02:55:00
10:55 PM,63.5,61.5,93,30.02,10.0,Calm,Calm,-,N/A,,Clear,0,2012-10-25 03:55:00
11:55 PM,62.2,60.6,94,30.01,10.0,Calm,Calm,-,N/A,,Clear,0,2012-10-25 04:55:00